Location: Cliff End Point
(51.3833°N, 1.2833°E)
Time: 18:59:50
(UTC+00:00)

Daily predictions for brighter satellites

Satellite Brightness Start Highest point End
(mag) Time Altitude Azimuth Time Altitude Azimuth Time Altitude Azimuth
CZ-4 R/B 1.3 18:05:50 10° SSE 18:09:39 61° ENE 18:13:33 10° N
H-2A R/B 2.2 18:04:24 10° SSE 18:09:48 66° ENE 18:15:12 10° N
USA 305 3.1 18:05:41 10° W 18:09:58 74° NNW 18:14:15 10° ENE
Gbstr 26 Del rocket 3.2 18:08:25 10° WSW 18:12:42 77° SSE 18:17:57 10° ENE
IRS-1C Rocket 4.1 18:08:19 10° SSE 18:13:35 83° ENE 18:18:55 10° NNW
SL-4 R/B 1.6 18:11:24 10° W 18:15:02 85° N 18:18:29 10° E
Meteor 1-20 Rocket 4.2 18:10:37 10° S 18:15:58 60° E 18:21:24 10° NNE
Cosmos 1302 Rocket 4.0 18:10:57 10° SSW 18:16:07 72° ESE 18:21:21 10° NNE
CSL-04 DEB 4.3 18:13:55 10° NNE 18:17:52 73° ESE 18:21:52 10° S
USA 307 3.1 18:16:58 10° W 18:21:16 71° NNW 18:25:32 10° ENE
FALCON 9 DEB 3.2 18:19:13 10° WNW 18:22:40 79° SSW 18:26:05 10° ESE
ATLAS CENTAUR R/B 2.6 18:22:10 10° SSE 18:24:35 17° ESE 18:26:57 10° ENE
USA 306 3.1 18:20:24 10° W 18:24:40 68° NNW 18:28:56 10° ENE
Cosmos 1354 Rocket 4.2 18:19:32 10° NNW 18:24:42 53° ENE 18:29:49 10° SE
USA 186 3.2 18:25:07 12° ENE 18:25:41 12° ENE 18:26:49 10° NE
Cosmos 44 Rocket 3.7 18:20:49 10° NW 18:26:04 74° SW 18:31:16 10° SSE
FALCON 9 DEB 3.1 18:23:48 10° W 18:26:57 63° N 18:29:48 12° ENE
ERS-2 2.7 18:23:42 10° NNE 18:27:06 35° E 18:30:28 10° SSE
Cosmos 1844 Rocket 2.8 18:22:50 10° NNW 18:28:21 57° NE 18:33:50 10° SE
Cosmos 2084 Rocket 3.6 18:24:16 10° NW 18:28:35 81° SW 18:33:03 10° SE
FALCON 9 DEB 3.2 18:25:44 10° W 18:28:55 64° N 18:31:45 13° ENE
Okean-O 2.6 18:25:05 10° SSE 18:29:30 82° ENE 18:33:58 10° NNW
CSL-04 Rocket 3.8 18:25:33 10° SE 18:30:59 58° ENE 18:36:23 10° N
USA 308 3.1 18:27:36 10° W 18:31:52 67° N 18:35:51 12° ENE
CSL-04 Debris 4.2 18:26:56 10° SSE 18:32:18 63° ENE 18:37:44 10° N
Cosmos 1271 Rocket 3.9 18:29:13 10° NNW 18:32:49 47° W 18:36:26 10° S
Cosmos 1503 Rocket 3.9 18:29:46 10° NNW 18:34:59 70° ENE 18:40:09 10° SSE
Cosmos 1666 4.1 18:32:29 10° SE 18:35:00 18° E 18:37:32 10° NE
H-2A R/B 3.6 18:32:10 10° N 18:35:57 36° WNW 18:39:44 10° SW
SKYMED 2 4.1 18:32:49 10° N 18:37:09 63° WNW 18:41:26 10° SSW
HJ-1C 3.3 18:34:05 10° SSE 18:37:23 67° ENE 18:40:41 10° N
MOS 1 Rocket 4.2 18:33:13 10° N 18:38:09 59° WNW 18:43:18 10° SSW
PSLV R/B 3.9 18:34:10 10° NNE 18:38:15 60° ESE 18:42:16 10° S
Cosmos 2341 Rocket 4.5 18:33:21 10° SSE 18:39:02 37° E 18:44:43 10° NNE
Cosmos 1844 3.8 18:34:25 10° NNW 18:40:10 59° NE 18:45:49 10° SE
CZ-4B R/B 2.2 18:39:19 10° N 18:42:17 48° WNW 18:45:14 10° SSW
Cosmos 1470 Rocket 3.6 18:38:27 10° S 18:42:50 57° E 18:47:13 10° NNE
Cosmos 2360 Rocket 2.6 18:40:01 10° S 18:45:12 39° ESE 18:50:27 10° NE
Cosmos 2278 Rocket 3.5 18:40:45 10° NNW 18:45:17 24° NE 18:48:36 15° E
Cosmos 1602 3.7 18:42:33 10° S 18:46:27 89° WNW 18:50:24 10° N
Ariane Rocket 3.8 18:42:04 10° ESE 18:46:29 31° ENE 18:50:55 10° N
Meteor 1-19 Rocket 4.5 18:41:51 10° NNW 18:47:51 83° W 18:53:40 10° S
Meteor 2-4 Rocket 3.8 18:46:35 10° N 18:52:25 70° ENE 18:58:19 10° SSE
Cosmos 1703 Rocket 3.7 18:48:25 10° N 18:52:44 50° ENE 18:56:59 10° SSE
DMSP B5D1-3 4.5 18:48:09 10° NNE 18:53:19 70° ESE 18:58:28 10° S
Cosmos 1500 3.2 18:49:53 10° S 18:53:31 52° E 18:57:09 10° NNE
Cosmos 2333 Rocket 3.2 18:51:17 10° SSE 18:55:35 23° ESE 18:59:55 10° NE
Cosmos 1689 Rocket 1.8 18:52:48 10° NNE 18:55:41 81° ESE 18:58:34 10° SSW
SL-08 RB Rocket 3.6 18:53:35 10° SSE 18:58:06 83° ENE 19:02:42 10° NNW
Meteor 2-12 Rocket 4.4 18:53:03 10° S 18:59:04 74° E 19:05:11 10° NNE
ERBS 2.6 18:56:47 10° WSW 19:00:04 62° NNW 19:02:19 19° NE
Cosmos 1980 Rocket 3.8 18:56:18 10° WSW 19:01:27 34° NW 19:06:39 10° NNE
Aureole 2 Rocket 3.2 19:01:10 10° NW 19:03:35 36° WSW 19:05:54 10° S
Cosmos 1933 Rocket 3.5 18:59:27 10° S 19:03:44 62° E 19:08:05 10° NNE
Cosmos 1943 Rocket 4.3 19:01:15 10° N 19:03:46 13° NNE 19:06:17 10° NE
Cosmos 2242 Rocket 3.5 19:06:17 10° N 19:10:50 83° E 19:15:18 10° SSE
Resurs 01 Rocket 2.8 19:12:41 22° ENE 19:13:07 23° ENE 19:16:34 10° N
Cosmos 2322 Rocket 2.2 19:09:25 10° SSW 19:15:03 82° WNW 19:20:44 10° NNE
Cosmos 1461 4.1 19:10:36 10° WSW 19:15:12 49° NW 19:19:49 10° NE
Abrixas rocket 2.2 19:13:42 10° WSW 19:16:05 40° S 19:16:07 40° S
Lacrosse 4 Rocket 3.6 19:13:53 10° SSE 19:14:29 13° SSE 19:14:29 13° SSE
FALCON 9 DEB 3.0 19:16:51 10° WNW 19:20:02 65° N 19:20:46 45° ENE
Helios 1A Rocket 3.9 19:16:38 10° S 19:20:33 47° W 19:24:29 10° NNW
YAOGAN 1 4.5 19:17:35 10° SSW 19:21:27 32° W 19:25:21 10° NNW
SJ-6B 2.8 19:22:30 19° SSE 19:25:20 68° ENE 19:29:22 10° N
COSMOS 2428 3.5 19:20:47 10° SSE 19:32:12 - NE 19:24:51 27° ESE
ASTEX 1 3.6 19:21:37 10° NNE 19:26:19 44° E 19:30:11 14° SSE
GP-B 3.3 19:25:02 10° S 19:29:28 73° W 19:33:56 10° N
Meteor 1-14 Rocket 4.4 19:24:31 10° SSW 19:30:04 75° WNW 19:35:39 10° N
MOS 1 4.2 19:25:33 15° SSE 19:30:17 66° ENE 19:35:56 10° NNW
Cosmos 2219 Rocket 2.6 19:27:20 10° S 19:32:22 36° ESE 19:37:28 10° NE
FALCON 9 DEB 2.8 19:29:16 10° WNW 19:32:27 71° N 19:32:42 66° NE
Meteor 1-11 Rocket 3.9 19:27:24 10° SSE 19:32:52 49° E 19:38:15 10° NNE
MetOp-A 4.2 19:29:02 10° SSE 19:34:24 84° WSW 19:39:48 10° NNW
OBJECT-B 0.6 19:36:26 73° ESE 19:36:36 75° ENE 19:39:50 10° N
Cosmos 1992 Rocket 4.5 19:31:56 10° SW 19:37:07 62° WNW 19:42:20 10° NNE
SJ 16-02 1.8 19:35:10 10° NNW 19:39:21 40° ENE 19:39:34 40° ENE
Resurs 1-3 3.6 19:38:47 44° ESE 19:39:50 56° ENE 19:44:10 10° N
SL-16 R/B 3.1 19:34:21 10° SW 19:39:51 49° NW 19:45:24 10° NNE
Okean 1-7 3.5 19:35:38 10° NNW 19:39:58 61° W 19:44:15 10° S
SeaSat 1 2.5 19:35:06 10° NNE 19:40:04 83° NW 19:45:01 10° SW
Terra 4.1 19:42:57 10° NE 19:42:57 10° NE 19:43:15 10° NNE
Cosmos 1066 Rocket 4.2 19:36:27 10° N 19:42:09 69° ENE 19:45:41 24° SSE
Meteor 1-13 Rocket 4.3 19:36:33 10° NNW 19:42:34 90° WNW 19:48:27 10° S
USA 234 3.4 19:39:54 27° ENE 19:43:24 52° SE 19:49:45 10° SW
Cosmos 1536 4.3 19:46:16 23° NNE 19:46:16 23° NNE 19:47:58 10° NNE
CZ-4 R/B 4.5 19:42:52 10° SW 19:45:06 15° W 19:47:21 10° NW
CZ-2C R/B 3.1 19:42:09 10° N 19:47:37 63° WNW 19:52:55 10° SSW
Cosmos 2369 Rocket 4.2 19:46:14 10° N 19:49:04 14° NNE 19:50:42 12° NE
USA 305 3.1 19:46:00 10° WNW 19:50:14 62° N 19:50:56 53° NE
BREEZE-M DEB (TANK) 2.4 19:47:53 10° W 19:50:31 67° S 19:51:09 55° SE
IRS-1A Rocket 4.2 19:46:43 16° SSE 19:51:16 87° WSW 19:56:52 10° NNW
Cosmos 2322 3.6 19:46:38 10° SSW 19:52:15 62° ESE 19:57:54 10° NE
DMSP B5D2-2 4.1 19:48:12 10° NNE 19:53:28 79° WNW 19:58:40 10° SSW
SL-4 R/B 2.1 19:51:04 10° W 19:54:12 49° SW 19:54:12 49° SW
USA 186 3.6 19:56:42 24° WNW 19:56:42 24° WNW 19:58:25 10° NW
Cosmos 1898 Rocket 4.2 19:53:06 10° NNW 19:57:50 35° NE 19:57:50 35° NE
Cosmos 1869 Rocket 3.4 19:53:39 10° S 19:58:01 88° W 20:02:28 10° N
Gbstr 26 Del rocket 3.4 19:54:58 10° W 19:59:43 87° N 20:00:59 54° E
SL-8 Rocket 4.0 19:54:20 10° SSW 20:00:35 81° W 20:06:49 10° N
USA 307 3.0 19:57:18 10° WNW 20:01:34 64° N 20:01:49 62° NNE
FALCON 9 DEB 4.1 19:59:43 10° WNW 20:01:56 41° WNW 20:01:56 41° WNW
ATLAS CENTAUR R/B 1.4 19:59:26 10° SW 20:03:02 62° NW 20:03:10 61° NNW
Cosmos 1378 3.3 20:00:31 10° NNW 20:03:53 69° NW 20:03:53 69° NW
USA 306 3.0 20:00:41 10° WNW 20:04:56 65° N 20:05:03 65° NNE
FALCON 9 DEB 4.2 20:01:46 10° WNW 20:03:59 41° WNW 20:03:59 41° WNW
Cosmos 1666 3.8 20:06:41 10° SSW 20:10:14 43° WNW 20:13:51 10° N
Cosmos 1844 Rocket 4.4 20:07:12 10° NW 20:11:57 29° WSW 20:16:41 10° SSW
USA 308 3.1 20:07:55 10° WNW 20:12:00 65° N 20:12:00 65° N
Cosmos 2366 rocket 4.1 20:09:18 10° SSW 20:15:38 78° W 20:22:03 10° N
NOSS 3-3 (A) 4.4 20:08:45 10° NW 20:16:04 80° NE 20:18:42 47° ESE
NOSS 3-3 (C) 4.4 20:08:51 10° NW 20:16:10 79° NE 20:18:47 47° ESE
Landsat 7 4.2 20:17:05 49° NNE 20:17:05 49° NNE 20:20:57 10° N
SL-08 R/B 4.4 20:11:58 20° S 20:16:40 72° E 20:23:08 10° NNE
Okean 3 4.3 20:14:03 10° NNW 20:18:09 48° W 20:19:31 34° SW
SPOT 3 Rocket 3.4 20:18:38 71° SSE 20:19:13 84° ENE 20:24:29 10° NNW
ARIANE 5 R/B 4.1 20:21:37 27° NNE 20:21:37 27° NNE 20:23:58 10° N
Cosmos 2333 4.2 20:17:15 10° SW 20:22:55 78° WNW 20:28:42 10° NNE
Cosmos 2221 Rocket 3.7 20:19:05 10° NNW 20:23:09 71° NW 20:23:09 71° NW
Ariane Rocket 3.8 20:22:15 22° SSW 20:25:17 48° W 20:30:14 10° NNW
SPOT 1/Viking Rocket 4.0 20:29:56 48° NNE 20:29:56 48° NNE 20:34:00 10° N
Cosmos 2360 Rocket 3.2 20:23:45 10° WSW 20:29:10 45° NW 20:34:39 10° NNE
Cosmos 2278 Rocket 2.0 20:24:28 10° NNW 20:30:12 87° ENE 20:30:28 82° SE
Cosmos 1727 Rocket 4.3 20:28:29 10° NNW 20:34:35 63° W 20:37:44 30° SSW
Cosmos 990 Rocket 4.2 20:29:40 10° NNW 20:34:05 61° N 20:34:05 61° N
Cosmos 2333 Rocket 2.3 20:33:36 10° SW 20:39:17 74° WNW 20:45:03 10° NNE
Cosmos 1821 Rocket 3.8 20:41:55 77° ENE 20:41:55 77° ENE 20:47:52 10° NNE
Cosmos 1000 Rocket 4.5 20:41:34 10° NNW 20:47:53 82° W 20:48:32 72° SSW
Resurs 01 Rocket 2.7 20:50:14 44° WNW 20:50:14 44° WNW 20:53:39 10° NNW
Cosmos 1943 Rocket 3.4 20:44:20 10° NNW 20:48:24 30° NNE 20:48:24 30° NNE
MetOp-B 4.3 20:50:11 71° NW 20:50:11 71° NW 20:55:05 10° NNW
Cosmos 2322 Rocket 4.4 20:55:36 10° W 20:59:59 23° NW 21:04:23 10° NNE
Cosmos 2123 Rocket 4.1 20:54:42 10° N 21:00:10 68° N 21:00:10 68° N
COSMOS 2428 3.8 21:03:48 10° SW 21:14:00 16° NNE 21:15:07 10° NNE
Cosmos 2219 Rocket 3.0 21:10:49 10° SW 21:16:12 48° NW 21:21:41 10° NNE
SJ 16-02 3.5 21:14:02 10° NW 21:16:35 24° WNW 21:16:35 24° WNW
Terra 3.9 21:21:50 21° N 21:21:50 21° N 21:23:24 10° N
USA 234 3.4 21:27:15 70° WNW 21:27:15 70° WNW 21:33:11 10° WSW
USA 281 3.9 21:34:30 47° N 21:34:30 47° N 21:39:24 10° NNW
Cosmos 2369 Rocket 3.8 21:29:33 10° NNW 21:32:29 27° N 21:32:29 27° N
Cosmos 2278 Rocket 4.5 22:09:46 10° WNW 22:12:20 17° W 22:12:20 17° W
Cosmos 2333 Rocket 4.4 22:20:15 10° W 22:24:34 22° NW 22:28:56 10° NNE
Cosmos 1943 Rocket 4.3 22:27:58 10° NW 22:29:55 22° NW 22:29:55 22° NW
